SAT243 LPPD-LPHR

Flight info

Callsign SAT243
Flight time 0h 43m
Altitude 20000
Route TIMTO H115 SOLGI
Aircraft DH8D/M-SDE2E3FGRY/H

Departure

Time 2026-04-23 13:35
Airport João Paulo II Airport (LPPD)

Arrival

Time 2026-04-23 14:18
Airport Horta Airport (LPHR)
Time Latitude Longitude Altitude Speed Heading
2026-04-23 13:31 37.74490 -25.70707 257 ft 25 kts 103°
2026-04-23 13:32 37.74416 -25.70458 251 ft 36 kts 112°
2026-04-23 13:32 37.74305 -25.70110 235 ft 33 kts 110°
2026-04-23 13:32 37.74229 -25.69866 225 ft 30 kts 112°
2026-04-23 13:32 37.74132 -25.69554 205 ft 42 kts 111°
2026-04-23 13:33 37.74052 -25.69299 189 ft 32 kts 112°
2026-04-23 13:33 37.73976 -25.69065 172 ft 32 kts 112°
2026-04-23 13:33 37.73899 -25.68821 150 ft 28 kts 111°
2026-04-23 13:33 37.73834 -25.68618 130 ft 21 kts 119°
2026-04-23 13:34 37.73741 -25.68504 118 ft 22 kts 86°
2026-04-23 13:34 37.73812 -25.68543 125 ft 2 kts 290°
2026-04-23 13:34 37.73812 -25.68544 125 ft 0 kts 290°
2026-04-23 13:34 37.73856 -25.68685 137 ft 54 kts 291°
2026-04-23 13:35 37.73964 -25.69039 170 ft 92 kts 291°
2026-04-23 13:35 37.74139 -25.69585 208 ft 130 kts 291°
2026-04-23 13:35 37.74513 -25.70756 479 ft 149 kts 294°
2026-04-23 13:35 37.74922 -25.71981 1035 ft 154 kts 290°
2026-04-23 13:36 37.75223 -25.73316 1517 ft 163 kts 280°
2026-04-23 13:36 37.75377 -25.74739 1914 ft 167 kts 277°
2026-04-23 13:36 37.75515 -25.76212 2288 ft 174 kts 276°
2026-04-23 13:36 37.75653 -25.77749 2694 ft 179 kts 276°
2026-04-23 13:37 37.75789 -25.79336 3101 ft 184 kts 276°
2026-04-23 13:37 37.75928 -25.80980 3509 ft 191 kts 275°
2026-04-23 13:37 37.76072 -25.82677 3897 ft 200 kts 275°
2026-04-23 13:37 37.76221 -25.84449 4287 ft 208 kts 275°
2026-04-23 13:38 37.76367 -25.86240 4647 ft 201 kts 275°
2026-04-23 13:38 37.76511 -25.88034 5028 ft 205 kts 275°
2026-04-23 13:38 37.76662 -25.89842 5449 ft 213 kts 275°
2026-04-23 13:38 37.76820 -25.91722 5999 ft 218 kts 275°
2026-04-23 13:39 37.76979 -25.93637 6558 ft 221 kts 275°
2026-04-23 13:39 37.77153 -25.95571 7114 ft 225 kts 278°
2026-04-23 13:39 37.77826 -25.97308 7631 ft 231 kts 313°
2026-04-23 13:39 37.79297 -25.98211 8202 ft 240 kts 340°
2026-04-23 13:40 37.80918 -25.98672 8759 ft 244 kts 343°
2026-04-23 13:40 37.82610 -25.99081 9323 ft 247 kts 345°
2026-04-23 13:40 37.84306 -25.99474 9880 ft 249 kts 345°
2026-04-23 13:40 37.86008 -25.99865 10422 ft 251 kts 345°
2026-04-23 13:41 37.87736 -26.00261 10973 ft 253 kts 344°
2026-04-23 13:41 37.89453 -26.00654 11516 ft 254 kts 344°
2026-04-23 13:41 37.91186 -26.01052 12061 ft 254 kts 344°
2026-04-23 13:41 37.92928 -26.01451 12604 ft 253 kts 343°
2026-04-23 13:42 37.94536 -26.02153 13114 ft 240 kts 319°
2026-04-23 13:42 37.95475 -26.03744 13647 ft 224 kts 290°
2026-04-23 13:42 37.96033 -26.05580 14200 ft 220 kts 288°
2026-04-23 13:42 37.96579 -26.07362 14740 ft 216 kts 289°
2026-04-23 13:43 37.97122 -26.09091 15271 ft 211 kts 290°
2026-04-23 13:43 37.97659 -26.10766 15800 ft 204 kts 290°
2026-04-23 13:43 37.98193 -26.12402 16327 ft 196 kts 290°
2026-04-23 13:43 37.98706 -26.13957 16848 ft 187 kts 291°
2026-04-23 13:44 37.99192 -26.15409 17353 ft 175 kts 291°
2026-04-23 13:44 37.99648 -26.16764 17850 ft 161 kts 292°
2026-04-23 13:44 38.00069 -26.17993 18306 ft 145 kts 291°
2026-04-23 13:44 38.00467 -26.19157 18446 ft 148 kts 292°
2026-04-23 13:45 38.00747 -26.19974 18392 ft 157 kts 292°
2026-04-23 13:45 38.01313 -26.21640 18712 ft 147 kts 292°
2026-04-23 13:45 38.01717 -26.22819 18874 ft 147 kts 292°
2026-04-23 13:45 38.02137 -26.24051 18866 ft 156 kts 292°
2026-04-23 13:46 38.02561 -26.25291 19173 ft 151 kts 293°
2026-04-23 13:46 38.02974 -26.26484 19525 ft 147 kts 294°
2026-04-23 13:46 38.03392 -26.27696 19652 ft 154 kts 293°
2026-04-23 13:46 38.03815 -26.28935 19908 ft 152 kts 293°
2026-04-23 13:47 38.04230 -26.30150 20130 ft 157 kts 294°
2026-04-23 13:47 38.04678 -26.31568 19924 ft 182 kts 291°
2026-04-23 13:47 38.05193 -26.33134 19915 ft 201 kts 293°
2026-04-23 13:47 38.05765 -26.34817 19899 ft 218 kts 293°
2026-04-23 13:48 38.06384 -26.36642 19879 ft 234 kts 293°
2026-04-23 13:48 38.07054 -26.38619 19857 ft 250 kts 293°
2026-04-23 13:48 38.07761 -26.40708 19832 ft 265 kts 293°
2026-04-23 13:48 38.08514 -26.42937 19819 ft 278 kts 293°
2026-04-23 13:49 38.09294 -26.45243 19812 ft 288 kts 293°
2026-04-23 13:49 38.10088 -26.47593 19817 ft 296 kts 293°
2026-04-23 13:49 38.10912 -26.50033 19816 ft 303 kts 293°
2026-04-23 13:49 38.11742 -26.52494 19810 ft 305 kts 293°
2026-04-23 13:50 38.12584 -26.54997 19802 ft 305 kts 293°
2026-04-23 13:50 38.13415 -26.57467 19813 ft 305 kts 293°
2026-04-23 13:50 38.14246 -26.59934 19815 ft 305 kts 293°
2026-04-23 13:50 38.15083 -26.62422 19810 ft 306 kts 294°
2026-04-23 13:51 38.15911 -26.64882 19808 ft 306 kts 293°
2026-04-23 13:51 38.16744 -26.67359 19796 ft 300 kts 293°
2026-04-23 13:51 38.17545 -26.69746 19801 ft 289 kts 293°
2026-04-23 13:51 38.18321 -26.72060 19692 ft 283 kts 293°
2026-04-23 13:52 38.19097 -26.74352 19487 ft 281 kts 294°
2026-04-23 13:52 38.19880 -26.76623 19285 ft 279 kts 294°
2026-04-23 13:52 38.20654 -26.78868 19081 ft 278 kts 294°
2026-04-23 13:52 38.21428 -26.81118 18876 ft 277 kts 293°
2026-04-23 13:53 38.22207 -26.83382 18516 ft 281 kts 293°
2026-04-23 13:53 38.22996 -26.85680 18124 ft 285 kts 293°
2026-04-23 13:53 38.23783 -26.87972 17738 ft 289 kts 293°
2026-04-23 13:53 38.24598 -26.90351 17168 ft 298 kts 293°
2026-04-23 13:54 38.25427 -26.92771 16706 ft 301 kts 293°
2026-04-23 13:54 38.26256 -26.95193 16406 ft 299 kts 293°
2026-04-23 13:54 38.27076 -26.97594 16165 ft 295 kts 292°
2026-04-23 13:54 38.27891 -26.99982 15945 ft 291 kts 293°
2026-04-23 13:55 38.28688 -27.02319 15736 ft 288 kts 292°
2026-04-23 13:55 38.29486 -27.04661 15525 ft 285 kts 293°
2026-04-23 13:55 38.30264 -27.06946 15318 ft 283 kts 292°
2026-04-23 13:55 38.31047 -27.09248 15117 ft 281 kts 292°
2026-04-23 13:56 38.31815 -27.11508 14912 ft 279 kts 292°
2026-04-23 13:56 38.32586 -27.13779 14711 ft 277 kts 292°
2026-04-23 13:56 38.33351 -27.16032 14515 ft 275 kts 292°
2026-04-23 13:56 38.34109 -27.18269 14315 ft 274 kts 292°
2026-04-23 13:57 38.34858 -27.20479 14115 ft 273 kts 292°
2026-04-23 13:57 38.35611 -27.22704 13909 ft 273 kts 292°
2026-04-23 13:57 38.36360 -27.24917 13717 ft 272 kts 292°
2026-04-23 13:57 38.37106 -27.27123 13522 ft 271 kts 292°
2026-04-23 13:58 38.37848 -27.29318 13327 ft 271 kts 292°
2026-04-23 13:58 38.38591 -27.31518 13130 ft 270 kts 292°
2026-04-23 13:58 38.39339 -27.33736 12934 ft 270 kts 292°
2026-04-23 13:58 38.40073 -27.35913 12739 ft 269 kts 292°
2026-04-23 13:59 38.40807 -27.38093 12547 ft 269 kts 292°
2026-04-23 13:59 38.41547 -27.40288 12347 ft 268 kts 292°
2026-04-23 13:59 38.42289 -27.42497 12151 ft 268 kts 292°
2026-04-23 13:59 38.43023 -27.44678 11967 ft 267 kts 292°
2026-04-23 14:00 38.43507 -27.46121 11842 ft 267 kts 292°
2026-04-23 14:00 38.44475 -27.49003 11589 ft 266 kts 292°
2026-04-23 14:00 38.45210 -27.51195 11396 ft 266 kts 292°
2026-04-23 14:00 38.45934 -27.53356 11207 ft 265 kts 292°
2026-04-23 14:01 38.46652 -27.55498 11026 ft 265 kts 292°
2026-04-23 14:01 38.47380 -27.57671 10832 ft 265 kts 292°
2026-04-23 14:01 38.48101 -27.59828 10635 ft 264 kts 292°
2026-04-23 14:01 38.48823 -27.61989 10442 ft 264 kts 292°
2026-04-23 14:02 38.49545 -27.64153 10254 ft 264 kts 292°
2026-04-23 14:02 38.50259 -27.66291 10066 ft 263 kts 292°
2026-04-23 14:02 38.50983 -27.68465 9874 ft 263 kts 292°
2026-04-23 14:02 38.51700 -27.70614 9680 ft 263 kts 291°
2026-04-23 14:03 38.52412 -27.72752 9490 ft 263 kts 291°
2026-04-23 14:03 38.53124 -27.74895 9295 ft 263 kts 291°
2026-04-23 14:03 38.53841 -27.77050 9107 ft 262 kts 291°
2026-04-23 14:03 38.54549 -27.79182 8919 ft 261 kts 291°
2026-04-23 14:04 38.55259 -27.81321 8729 ft 260 kts 291°
2026-04-23 14:04 38.55968 -27.83458 8536 ft 259 kts 291°
2026-04-23 14:04 38.56663 -27.85555 8346 ft 259 kts 291°
2026-04-23 14:04 38.57371 -27.87695 8159 ft 257 kts 291°
2026-04-23 14:05 38.58063 -27.89786 7974 ft 254 kts 291°
2026-04-23 14:05 38.58742 -27.91840 7789 ft 251 kts 291°
2026-04-23 14:05 38.59414 -27.93878 7610 ft 249 kts 291°
2026-04-23 14:05 38.60087 -27.95917 7435 ft 246 kts 291°
2026-04-23 14:06 38.60749 -27.97924 7256 ft 245 kts 291°
2026-04-23 14:06 38.61412 -27.99936 7077 ft 243 kts 291°
2026-04-23 14:06 38.62060 -28.01903 6906 ft 241 kts 291°
2026-04-23 14:06 38.62712 -28.03884 6731 ft 240 kts 291°
2026-04-23 14:07 38.63365 -28.05867 6559 ft 239 kts 291°
2026-04-23 14:07 38.64646 -28.09766 6218 ft 237 kts 291°
2026-04-23 14:07 38.65284 -28.11709 6047 ft 236 kts 291°
2026-04-23 14:08 38.65910 -28.13620 5879 ft 235 kts 291°
2026-04-23 14:08 38.66547 -28.15561 5708 ft 234 kts 291°
2026-04-23 14:08 38.67170 -28.17463 5542 ft 233 kts 291°
2026-04-23 14:08 38.67797 -28.19378 5370 ft 232 kts 291°
2026-04-23 14:09 38.68422 -28.21291 5202 ft 231 kts 291°
2026-04-23 14:09 38.69043 -28.23190 5036 ft 230 kts 291°
2026-04-23 14:09 38.69659 -28.25078 4866 ft 230 kts 291°
2026-04-23 14:09 38.69947 -28.27076 4664 ft 228 kts 263°
2026-04-23 14:10 38.69337 -28.28921 4536 ft 229 kts 243°
2026-04-23 14:10 38.68497 -28.30650 4361 ft 229 kts 241°
2026-04-23 14:10 38.67642 -28.32378 4198 ft 229 kts 242°
2026-04-23 14:10 38.66784 -28.34103 4029 ft 229 kts 242°
2026-04-23 14:11 38.65933 -28.35814 3866 ft 228 kts 242°
2026-04-23 14:11 38.65073 -28.37554 3698 ft 227 kts 242°
2026-04-23 14:11 38.64239 -28.39257 3540 ft 227 kts 242°
2026-04-23 14:11 38.63400 -28.40970 3378 ft 226 kts 242°
2026-04-23 14:12 38.62565 -28.42674 3216 ft 226 kts 242°
2026-04-23 14:12 38.61734 -28.44370 3056 ft 225 kts 242°
2026-04-23 14:12 38.60872 -28.46059 2894 ft 226 kts 239°
2026-04-23 14:12 38.59909 -28.47602 2722 ft 218 kts 233°
2026-04-23 14:13 38.58911 -28.48971 2604 ft 202 kts 233°
2026-04-23 14:13 38.57983 -28.50257 2441 ft 190 kts 234°
2026-04-23 14:13 38.57121 -28.51456 2302 ft 174 kts 234°
2026-04-23 14:13 38.56348 -28.52521 2168 ft 148 kts 235°
2026-04-23 14:14 38.55711 -28.53396 2028 ft 121 kts 236°
2026-04-23 14:14 38.55156 -28.54167 1937 ft 115 kts 237°
2026-04-23 14:14 38.54616 -28.54940 1973 ft 121 kts 237°
2026-04-23 14:14 38.54034 -28.55788 1937 ft 130 kts 236°
2026-04-23 14:15 38.53433 -28.56673 1894 ft 134 kts 239°
2026-04-23 14:15 38.52919 -28.57660 1834 ft 130 kts 248°
2026-04-23 14:15 38.52528 -28.58708 1746 ft 131 kts 254°
2026-04-23 14:15 38.52250 -28.59817 1641 ft 130 kts 261°
2026-04-23 14:16 38.52096 -28.60919 1527 ft 121 kts 267°
2026-04-23 14:16 38.52058 -28.61940 1422 ft 110 kts 271°
2026-04-23 14:16 38.52063 -28.62903 1294 ft 103 kts 271°
2026-04-23 14:16 38.52063 -28.63847 1158 ft 111 kts 271°
2026-04-23 14:17 38.52053 -28.64851 1012 ft 113 kts 270°
2026-04-23 14:17 38.52029 -28.65866 847 ft 117 kts 271°
2026-04-23 14:17 38.52014 -28.66875 756 ft 113 kts 272°
2026-04-23 14:17 38.52005 -28.67888 618 ft 114 kts 270°
2026-04-23 14:18 38.51998 -28.68905 461 ft 114 kts 270°
2026-04-23 14:18 38.52000 -28.69922 286 ft 116 kts 269°
2026-04-23 14:18 38.51993 -28.70957 126 ft 113 kts 269°
2026-04-23 14:18 38.51989 -28.71723 111 ft 48 kts 270°
2026-04-23 14:19 38.51982 -28.71938 104 ft 12 kts 256°
2026-04-23 14:19 38.52008 -28.71991 103 ft 14 kts 49°
2026-04-23 14:19 38.51992 -28.71798 109 ft 31 kts 94°
2026-04-23 14:19 38.52005 -28.71650 113 ft 12 kts 42°
2026-04-23 14:20 38.52078 -28.71637 116 ft 7 kts 357°
2026-04-23 14:20 38.52107 -28.71621 118 ft 1 kts 111°
2026-04-23 14:20 38.52102 -28.71618 118 ft 0 kts 165°